[[{"header":{"parameterUnit":"m.s-1","parameterCategory":1,"la1":30.2991,"la2":30.254,"lo1":-89.0895,"lo2":-89.0444,"dy":0.0017,"dx":0.0017,"nx":28,"ny":28,"refTime":"2024-04-23T03:00:00:Z","depth":0,"parameterNumber":2,"parameterNumberName":"U-component_of_WINDS"},"data":[0,0,0,0,0,0,0,0,0,0,0,0,0,0,0,0,0,0,0,0,0,0,0,0,0,0,0,0,0,0,0,0,0,0,0,0,0,0,0,0,0,0,0,0,0,0,0,0,0,0,0,0,0,0,0,0,0,0,-2.0687,-2.0687,0,-2.0724,-2.0724,-2.0725,-2.0721,-2.072,-2.0719,-2.0719,-2.0756,-2.0757,-2.0759,0,0,0,0,0,0,0,0,0,0,0,0,0,-2.0612,-2.0614,-2.0687,-2.0687,-2.0688,-2.0724,-2.0724,-2.0725,-2.0721,-2.072,-2.0719,-2.0719,-2.0755,-2.0757,-2.0759,0,0,0,0,0,0,0,0,0,0,0,0,0,-2.0646,-2.0614,-2.0687,-2.069,-2.0691,-2.0724,-2.0724,-2.0725,-2.0721,-2.072,-2.0719,-2.0718,-2.0754,-2.0757,-2.0759,-2.0791,0,0,-2.0766,-2.0767,0,0,0,0,0,0,0,0,-2.0645,-2.0649,-2.0689,-2.069,-2.0691,-2.0717,-2.0712,-2.0747,-2.0721,-2.0709,-2.0719,-2.0718,-2.0743,-2.0746,-2.0755,-2.0792,-2.0794,-2.0766,-2.0768,-2.0769,-2.0769,0,0,0,0,0,0,0,-2.0642,-2.0648,-2.0701,-2.069,-2.0691,-2.069,-2.0694,-2.0718,-2.0731,-2.071,-2.071,-2.0715,-2.0744,-2.0753,-2.0756,-2.0795,-2.0766,-2.0768,-2.077,-2.077,-2.0861,-2.0862,0,0,0,0,0,0,-2.0639,-2.0646,-2.07,-2.0702,-2.0665,-2.0692,-2.0696,-2.0709,-2.073,-2.0733,-2.0715,-2.0714,-2.075,-2.0753,-2.0757,-2.0797,-2.0768,-2.0771,-2.0772,-2.086,-2.0861,-2.0863,0,0,0,0,0,0,-2.0637,-2.0644,-2.0699,-2.0674,-2.0681,-2.0694,-2.0709,-2.071,-2.072,-2.0734,-2.0736,-2.0723,-2.0749,-2.0754,-2.0783,-2.0798,-2.0772,-2.0774,-2.0859,-2.0861,-2.0862,-2.0875,0,0,0,0,0,0,-2.0635,-2.0643,-2.0655,-2.0674,-2.0682,-2.0723,-2.071,-2.0712,-2.0724,-2.0723,-2.0742,-2.0744,-2.0749,-2.078,-2.0785,-2.08,-2.0776,-2.0858,-2.086,-2.0862,-2.0873,-2.0876,-2.0879,0,0,0,0,0,-2.0633,-2.0657,-2.0656,-2.0663,-2.0698,-2.0724,-2.0729,-2.0734,-2.0725,-2.0738,-2.0747,-2.0744,-2.0796,-2.0783,-2.0789,-2.0805,-2.0857,-2.0859,-2.0861,-2.0871,-2.0876,-2.0879,0,0,0,0,0,0,-2.0638,-2.0659,-2.0658,-2.0689,-2.0705,-2.0724,-2.0739,-2.0738,-2.0756,-2.0754,-2.076,-2.0764,-2.0793,-2.0802,-2.0787,-2.0838,-2.0825,-2.0829,-2.083,-2.0835,-2.0838,-2.0835,-2.0777,0,0,0,0,0,-2.0643,-2.0663,-2.0681,-2.0706,-2.0714,-2.0726,-2.0737,-2.074,-2.0757,-2.0763,-2.0775,-2.079,-2.081,-2.0823,-2.0842,-2.0875,-2.0879,-2.0889,-2.0893,-2.0895,-2.0898,-2.0917,-2.0921,-2.087,-2.087,-2.087,0,0,-2.0653,-2.0667,-2.0679,-2.0708,-2.072,-2.0741,-2.0731,-2.0753,-2.0769,-2.0766,-2.0794,-2.0804,-2.0822,-2.0853,-2.0867,-2.0861,-2.0913,-2.0898,-2.09,-2.0901,-2.0919,-2.0924,-2.0929,-2.0872,-2.0872,-2.0871,0,0,-2.0682,-2.0695,-2.0718,-2.0731,-2.0751,-2.0758,-2.0764,-2.0783,-2.079,-2.0818,-2.0817,-2.0836,-2.087,-2.0883,-2.0894,-2.0931,-2.0929,-2.0937,-2.0954,-2.0972,-2.0976,-2.098,-2.0993,-2.0997,-2.094,-2.094,-2.094,0,-2.0691,-2.0723,-2.073,-2.0753,-2.0765,-2.0766,-2.079,-2.0802,-2.0827,-2.0836,-2.0829,-2.0873,-2.0885,-2.092,-2.0929,-2.0938,-2.0945,-2.0934,-2.0975,-2.0979,-2.0982,-2.0995,-2.1,-2.0941,-2.0941,-2.0941,-2.0941,0,-2.0734,-2.0756,-2.0773,-2.0798,-2.0813,-2.0836,-2.0846,-2.0861,-2.0863,-2.0872,-2.0901,-2.0917,-2.0939,-2.0948,-2.095,-2.0983,-2.0979,-2.0974,-2.0961,-2.0988,-2.1,-2.1004,-2.0943,-2.0942,-2.0942,-2.0942,0,0,-2.0765,-2.0795,-2.0801,-2.0813,-2.0836,-2.0853,-2.0877,-2.09,-2.0912,-2.093,-2.095,-2.098,-2.0976,-2.0989,-2.0993,-2.1009,-2.1038,-2.1002,-2.1003,-2.1008,-2.1076,-2.1079,-2.1084,-2.1037,-2.1038,-2.1039,-2.1074,0,-2.0796,-2.0838,-2.0846,-2.0883,-2.0904,-2.0906,-2.0927,-2.0943,-2.0952,-2.0971,-2.0982,-2.1003,-2.0996,-2.1004,-2.102,-2.1031,-2.1051,-2.1029,-2.1055,-2.1056,-2.105,-2.109,-2.1094,-2.1126,-2.1079,-2.108,-2.108,0,-2.0837,-2.0857,-2.0896,-2.0917,-2.0926,-2.0945,-2.0968,-2.0986,-2.1005,-2.1011,-2.1027,-2.1029,-2.1055,-2.1042,-2.1077,-2.1061,-2.1073,-2.1081,-2.1082,-2.1084,-2.1069,-2.1093,-2.1137,-2.1141,-2.1088,-2.1087,-2.1086,0,-2.0855,-2.0892,-2.092,-2.0931,-2.0956,-2.097,-2.0981,-2.0999,-2.1013,-2.1033,-2.1043,-2.1065,-2.1077,-2.1095,-2.1104,-2.1094,-2.1138,-2.1126,-2.1143,-2.1143,-2.1151,-2.115,-2.1197,-2.1161,-2.1161,-2.116,-2.116,0,-2.0888,-2.0912,-2.0929,-2.0946,-2.0974,-2.0983,-2.101,-2.1021,-2.1038,-2.1058,-2.1061,-2.108,-2.1091,-2.1111,-2.1118,-2.1147,-2.1152,-2.1157,-2.1159,-2.1157,-2.1156,-2.1163,-2.1161,-2.1162,-2.1161,-2.1161,-2.1161,0,-2.0912,-2.0925,-2.0956,-2.0979,-2.0985,-2.1004,-2.1024,-2.1041,-2.1051,-2.1076,-2.1083,-2.1099,-2.1123,-2.1134,-2.1164,-2.1169,-2.1201,-2.1201,-2.1194,-2.1195,-2.1211,-2.1209,-2.1263,-2.1271,-2.123,-2.1231,-2.1231,0,-2.0932,-2.0951,-2.0976,-2.099,-2.1002,-2.1024,-2.1039,-2.105,-2.1065,-2.109,-2.1104,-2.1129,-2.1149,-2.1187,-2.1201,-2.1225,-2.1225,-2.1243,-2.1228,-2.1226,-2.1225,-2.1223,-2.1225,-2.1244,-2.1245,-2.1245,-2.1245,0,-2.0966,-2.0972,-2.0993,-2.1017,-2.1035,-2.1054,-2.1073,-2.1084,-2.1098,-2.1115,-2.114,-2.1156,-2.1187,-2.1212,-2.1236,-2.1248,-2.1249,-2.125,-2.1255,-2.1253,-2.1248,-2.1251,-2.1201,-2.1248,-2.1248,-2.1248,-2.1248,-2.1248,-2.0988,-2.1005,-2.1026,-2.105,-2.1066,-2.1084,-2.1102,-2.1115,-2.1136,-2.1163,-2.1168,-2.1195,-2.1216,-2.1249,-2.1262,-2.1283,-2.1279,-2.1286,-2.1288,-2.129,-2.129,-2.1246,-2.1288,-2.1288,-2.1288,-2.1287,-2.1287,0,-2.1022,-2.1036,-2.1058,-2.1085,-2.1104,-2.1105,-2.1127,-2.1142,-2.1166,-2.1186,-2.1206,-2.1236,-2.126,-2.1277,-2.1302,-2.1316,-2.1317,-2.1322,-2.132,-2.1323,-2.1293,-2.1286,-2.132,-2.132,-2.132,-2.132,-2.132,-2.132,-2.1042,-2.1071,-2.108,-2.1117,-2.1131,-2.1158,-2.117,-2.1187,-2.1202,-2.1236,-2.1256,-2.1268,-2.1286,-2.1313,-2.1335,-2.1339,-2.1348,-2.1353,-2.1357,-2.1328,-2.1325,-2.1322,-2.1315,-2.1355,-2.1355,-2.1386,-2.1386,-2.1386]},{"header":{"parameterUnit":"m.s-1","parameterCategory":1,"la1":30.2991,"la2":30.254,"lo1":-89.0895,"lo2":-89.0444,"dy":0.0017,"dx":0.0017,"nx":28,"ny":28,"refTime":"2024-04-23T03:00:00:Z","depth":0,"parameterNumber":3,"parameterNumberName":"V-component_of_WINDS"},"data":[0,0,0,0,0,0,0,0,0,0,0,0,0,0,0,0,0,0,0,0,0,0,0,0,0,0,0,0,0,0,0,0,0,0,0,0,0,0,0,0,0,0,0,0,0,0,0,0,0,0,0,0,0,0,0,0,0,0,4.0423,4.0423,0,4.0386,4.0386,4.0386,4.0372,4.0372,4.0373,4.0373,4.0331,4.033,4.0328,0,0,0,0,0,0,0,0,0,0,0,0,0,4.0478,4.0477,4.0423,4.0423,4.0422,4.0386,4.0386,4.0385,4.0372,4.0372,4.0373,4.0373,4.0331,4.033,4.0328,0,0,0,0,0,0,0,0,0,0,0,0,0,4.0449,4.0476,4.0423,4.0411,4.041,4.0387,4.0386,4.0385,4.0372,4.0372,4.0373,4.0373,4.0332,4.033,4.0328,4.0312,0,0,4.0322,4.0322,0,0,0,0,0,0,0,0,4.045,4.0447,4.0413,4.0412,4.041,4.0384,4.039,4.0361,4.0372,4.0386,4.0373,4.0373,4.0348,4.0345,4.0337,4.031,4.0309,4.0322,4.0321,4.032,4.032,0,0,0,0,0,0,0,4.0452,4.0448,4.0408,4.0413,4.0411,4.0407,4.0403,4.0384,4.0366,4.0385,4.0384,4.038,4.0347,4.0339,4.0336,4.0308,4.0322,4.0321,4.0319,4.0319,4.0266,4.0266,0,0,0,0,0,0,4.0457,4.045,4.0409,4.0407,4.0431,4.0405,4.0401,4.0392,4.0367,4.0363,4.038,4.038,4.0342,4.0339,4.0335,4.0315,4.032,4.0319,4.0317,4.0266,4.0266,4.0265,0,0,0,0,0,0,4.0458,4.0453,4.0411,4.0428,4.0423,4.0404,4.0395,4.0392,4.0384,4.0363,4.0359,4.0376,4.0342,4.0337,4.0318,4.0313,4.0318,4.0316,4.0266,4.0266,4.0266,4.0274,0,0,0,0,0,0,4.046,4.0454,4.0449,4.0428,4.0422,4.0396,4.0394,4.0391,4.0381,4.038,4.0358,4.0354,4.0342,4.0321,4.0316,4.0311,4.0315,4.0267,4.0266,4.0266,4.0275,4.0274,4.0274,0,0,0,0,0,4.0462,4.0452,4.0448,4.0444,4.0415,4.0396,4.0392,4.038,4.0381,4.0375,4.0361,4.0355,4.0315,4.0319,4.0314,4.0307,4.0267,4.0266,4.0266,4.0275,4.0274,4.0274,0,0,0,0,0,0,4.047,4.0449,4.0445,4.0428,4.0414,4.0394,4.0386,4.038,4.0365,4.0364,4.0349,4.0344,4.0326,4.0315,4.032,4.0291,4.029,4.0289,4.0299,4.0298,4.0298,4.0301,4.0313,0,0,0,0,0,4.047,4.0458,4.044,4.0427,4.042,4.0404,4.0395,4.0388,4.0372,4.0365,4.0351,4.0334,4.0318,4.0308,4.0291,4.0273,4.0267,4.0266,4.0266,4.0266,4.0264,4.0253,4.0252,4.0263,4.0263,4.0263,0,0,4.047,4.0457,4.045,4.0428,4.0416,4.0403,4.0399,4.0385,4.0375,4.0363,4.0344,4.0333,4.0314,4.0295,4.0286,4.0285,4.026,4.0265,4.0265,4.0263,4.0252,4.0251,4.025,4.0263,4.0263,4.0263,0,0,4.0463,4.0452,4.044,4.0429,4.0412,4.0401,4.0399,4.0379,4.0372,4.0353,4.0344,4.0331,4.0303,4.029,4.0279,4.0268,4.0261,4.0263,4.0262,4.0251,4.025,4.025,4.0245,4.0244,4.0261,4.0261,4.0261,0,4.0464,4.0445,4.0434,4.0421,4.0411,4.0402,4.0389,4.0378,4.0356,4.0349,4.0348,4.0314,4.03,4.0278,4.0275,4.0267,4.0263,4.0265,4.0252,4.0251,4.025,4.0245,4.0244,4.0262,4.0262,4.0262,4.0261,0,4.0448,4.0435,4.0427,4.0408,4.0397,4.0384,4.037,4.036,4.0353,4.0343,4.0323,4.0307,4.0287,4.0281,4.0274,4.0258,4.0258,4.0255,4.0254,4.0249,4.0245,4.0243,4.0262,4.0262,4.0262,4.0262,0,0,4.0445,4.042,4.0418,4.0409,4.0389,4.0378,4.0364,4.0347,4.0338,4.0323,4.0311,4.0288,4.0285,4.0273,4.0264,4.0255,4.0246,4.0253,4.0252,4.0252,4.0228,4.023,4.0229,4.0242,4.0242,4.0241,4.0229,0,4.0435,4.0412,4.0401,4.0382,4.0369,4.036,4.0348,4.0334,4.0324,4.031,4.0298,4.0282,4.028,4.0273,4.0263,4.025,4.0241,4.025,4.0229,4.0228,4.0234,4.0226,4.0229,4.0218,4.0227,4.0227,4.0227,0,4.042,4.0407,4.0387,4.0369,4.0364,4.0353,4.0336,4.0324,4.0307,4.03,4.0288,4.0279,4.0263,4.0264,4.0241,4.0247,4.0238,4.023,4.0229,4.0226,4.0227,4.0223,4.0215,4.0213,4.0224,4.0224,4.0225,0,4.042,4.0397,4.0382,4.0375,4.0354,4.0346,4.0337,4.0321,4.0311,4.0296,4.0289,4.0272,4.0262,4.0248,4.0234,4.0236,4.0212,4.0212,4.0205,4.0206,4.02,4.0201,4.019,4.0195,4.0195,4.0195,4.0195,0,4.041,4.0398,4.0382,4.0372,4.0358,4.0346,4.0332,4.0322,4.0308,4.0296,4.0286,4.0274,4.0257,4.0243,4.0232,4.0214,4.021,4.0203,4.02,4.0204,4.0205,4.0197,4.0198,4.0194,4.0194,4.0195,4.0195,0,4.0407,4.0396,4.0379,4.0361,4.0356,4.0347,4.0331,4.0321,4.031,4.0295,4.029,4.0273,4.0256,4.0241,4.0218,4.0211,4.0193,4.0189,4.0199,4.0197,4.0191,4.0192,4.0175,4.0172,4.0179,4.0179,4.0179,0,4.0402,4.0393,4.0374,4.0366,4.0357,4.0344,4.0334,4.0322,4.0312,4.0293,4.0285,4.0267,4.0253,4.0225,4.021,4.0192,4.0188,4.0184,4.0185,4.0189,4.0188,4.0189,4.0188,4.0183,4.0183,4.0183,4.0183,0,4.0393,4.0388,4.0375,4.0361,4.035,4.0337,4.0324,4.0318,4.0302,4.0291,4.0275,4.0264,4.0241,4.0223,4.0204,4.0192,4.0185,4.0183,4.0181,4.0184,4.019,4.0187,4.0198,4.0183,4.0183,4.0183,4.0183,4.0183,4.0388,4.038,4.0366,4.0352,4.0341,4.033,4.032,4.0308,4.0295,4.0276,4.0269,4.0252,4.0235,4.0209,4.0198,4.0183,4.0182,4.0178,4.0177,4.0176,4.0177,4.0193,4.0179,4.0179,4.0179,4.0179,4.0179,0,4.0379,4.037,4.0357,4.034,4.0329,4.0325,4.031,4.0301,4.0286,4.0272,4.0259,4.0239,4.0222,4.0206,4.0188,4.0179,4.0175,4.0175,4.0175,4.0172,4.0179,4.0183,4.0178,4.0178,4.0178,4.0178,4.0178,4.0178,4.0373,4.0359,4.0352,4.0332,4.0322,4.0307,4.0299,4.0287,4.0276,4.0255,4.0242,4.0232,4.0216,4.0197,4.0181,4.0176,4.017,4.017,4.0165,4.0172,4.0172,4.0172,4.0176,4.0169,4.0169,4.0159,4.0159,4.0159]}]]